Regional Weather Roundup
Issued by NWS

Home | Current Version | Previous Version | Text Only | Print | Product List | Glossary Off
Versions: 1 2 3 4 5 6 7 8 9 10 11 12 13 14 15 16 17 18 19 20 21 22 23 24 25 26 27 28 29 30 31 32 33 34 35 36 37 38 39 40 41 42 43 44 45 46 47 48 49 50

000
ASUS43 KFSD 271102
RWRSD

WEATHER ROUNDUP FOR SOUTH DAKOTA
NATIONAL WEATHER SERVICE SIOUX FALLS SD
500 AM CST THU NOV 27 2014

NOTE: "FAIR" INDICATES FEW OR NO CLOUDS BELOW 12,000 FEET WITH NO
SIGNIFICANT WEATHER AND/OR OBSTRUCTIONS TO VISIBILITY.


SDZ001>005-009-010-012>017-271200-
NORTHWEST AND NORTH CENTRAL SOUTH DAKOTA

CITY           SKY/WX    TMP DP  RH WIND       PRES   REMARKS
BUFFALO          N/A     19  16  88 SE14      30.10F WCI   6
FAITH            N/A     13  10  88 SE13      30.26F WCI  -2
MOBRIDGE       CLOUDY     2  -2  83 SE12      30.37F FOG     WCI -15
$$

SDZ012>016-024>037-041>051-057-063-072>074-271200-
SOUTHWEST AND SOUTH CENTRAL SOUTH DAKOTA

CITY           SKY/WX    TMP DP  RH WIND       PRES   REMARKS
RAPID CTY ARPT CLOUDY    20  17  88 SE8       30.18F WCI  10
PIERRE         CLOUDY    12   7  80 E12       30.38F WCI  -2
CUSTER         PTCLDY    22  19  89 SW6       30.08F WCI  14
ELLSWORTH AFB  CLOUDY    21  19  93 S8        30.16  WCI  11
PHILIP         CLOUDY    19  13  77 E14       30.29F WCI   6
PINE RIDGE     CLOUDY    29  24  82 S8        30.19F WCI  21
WINNER         CLOUDY    16   8  71 E15       30.36F WCI   1
$$

SDZ004>011-016>023-039-040-271200-
NORTHEAST SOUTH DAKOTA

CITY           SKY/WX    TMP DP  RH WIND       PRES   REMARKS
ABERDEEN       MOCLDY   -12 -17  78 CALM      30.52S
WATERTOWN      MOCLDY   -10 -14  82 N3        30.46R
SISSETON         N/A    -12 -17  78 CALM      30.53S
$$

SDZ017-020-022-023-036>040-048>070-271200-
SOUTHEAST SOUTH DAKOTA

CITY           SKY/WX    TMP DP  RH WIND       PRES   REMARKS
SIOUX FALLS    PTCLDY    -4 -10  75 N5        30.49F WCI -15
HURON          MOCLDY    -5  -9  83 CALM      30.51F
MITCHELL       MOCLDY     1  -4  79 CALM      30.53R
YANKTON        CLOUDY    10   3  72 N7        30.50F WCI   0
$$

ABBREVIATIONS USED IN REMARKS
   TC - TEMPERATURE IN CELSIUS
  WCI - WIND CHILL INDEX
   HX - HEAT INDEX
  VSB - VISIBILITY



USA.gov is the U.S. government's official web portal to all federal, state and local government web resources and services.